{"data":{"norad_id":64306,"intl_designator":"2025-123R","name":"STARLINK-34355","alt_names":[],"object_type":"PAYLOAD","status":"ACTIVE","operator":null,"country":"US","launch_date":"2025-06-08","launch_site_code":"AFWTR","launch_vehicle":null,"mission":null,"orbit_class":"UNKNOWN","rcs_meters":null,"size_class":null,"mass_kg":null,"dimensions":null,"purposes":["comms"],"wikipedia_slug":null,"has_3d_model":false,"image_url":null,"decayed_at":null,"tle_current":{"epoch":"2026-09-20T16:47:37.957632Z","epoch_age_seconds":120390,"freshness":"FRESH","line1":"1 64306U 25123R   26263.69974488  .00010890  00000+0  38268-3 0  9993","line2":"2 64306  70.0004  60.5954 0002293 266.5464  93.5449 15.29583714 70882","mean_motion":15.29583714,"eccentricity":0.0002293,"inclination_deg":70.0004,"raan_deg":60.5954,"arg_perigee_deg":266.5464,"mean_anomaly_deg":93.5449,"bstar":0.00038268,"rev_number":7088,"period_min":94.143261779002,"perigee_km":475.48391042762,"apogee_km":478.62770184851,"semimajor_km":6855.1928061381,"source":"CELESTRAK","updated_at":"2026-09-21T09:00:35.307960Z"}}}